Weather History for KEVW - March, 2014

Change the Weather History Date:

Thursday, March 27, 2014

  Actual Average Record
Temperature  
Mean Temperature 28 °F 34 °F  
Max Temperature 34 °F 43 °F 64 °F (2015)
Min Temperature 24 °F 25 °F 1 °F (2009)
Degree Days  
Heating Degree Days 36 31  
Month to date heating degree days 795 939  
Since 1 July heating degree days 6445 6947  
Cooling Degree Days 0 0  
Month to date cooling degree days 0 0  
Year to date cooling degree days 0 0  
Moisture  
Dew Point 26 °F    
Average Humidity 86    
Maximum Humidity 100    
Minimum Humidity 72    
Precipitation  
Precipitation T in 0.04 in 0.09 in (2003)
Month to date precipitation 0.08 0.70  
Year to date precipitation 0.11 1.85  
Sea Level Pressure  
Sea Level Pressure 29.78 in    
Wind  
Wind Speed 16 mph (WSW)    
Max Wind Speed 27 mph    
Max Gust Speed 35 mph    
Visibility 4 miles    
Events Fog , Snow    
T = Trace of Precipitation, MM = Missing Value Source: NWS Daily Summary

Daily Weather History Graph

Daily Weather History Graph

Search for Another Location

Airport or City:

Trip Planner

Search our weather history database for the weather conditions in past years. The results will help you decide how hot, cold, wet, or windy it might be!

Date:

Astronomy

Mar. 27, 2014 Rise Set
Actual Time 7:15 AM MDT 7:43 PM MDT
Civil Twilight 6:47 AM MDT 8:11 PM MDT
Nautical Twilight 6:15 AM MDT 8:44 PM MDT
Astronomical Twilight 5:41 AM MDT 9:17 PM MDT
Moon 5:11 AM MDT (3/27) 4:33 PM MDT (3/27)
Length of Visible Light 13h 23m
Length of Day
12h 28m
Waning Crescent, 12% of the Moon is Illuminated
Mar 27
Waning Crescent
Mar 30
New
Apr 7
First Quarter
Apr 15
Full
Apr 22
Last Quarter

Hourly Weather History & Observations

Time (MDT) Temp. Windchill Dew Point Humidity Pressure Visibility Wind Dir Wind Speed Gust Speed Precip Events Conditions
12:53 AM 28.9 °F 18.6 °F 26.1 °F 89% 29.64 in 10.0 mi WSW 12.7 mph - N/A   Clear
1:53 AM 28.9 °F 16.9 °F 25.0 °F 85% 29.65 in 10.0 mi West 17.3 mph - N/A   Clear
2:53 AM 28.0 °F 18.6 °F 25.0 °F 88% 29.67 in 10.0 mi WSW 10.4 mph - N/A   Partly Cloudy
3:17 AM 28.0 °F 19.3 °F 27.0 °F 96% 29.68 in 5.0 mi SW 9.2 mph - N/A   Mostly Cloudy
3:53 AM 28.0 °F 20.0 °F 27.0 °F 96% 29.65 in 9.0 mi WSW 8.1 mph - N/A   Mostly Cloudy
4:43 AM 30.0 °F 19.5 °F 28.0 °F 92% 29.68 in 2.5 mi West 13.8 mph - 0.00 in Snow Light Snow
4:49 AM 30.2 °F 19.8 °F 26.6 °F 86% 29.68 in 2.5 mi WSW 13.8 mph - 0.00 in Snow Light Snow
4:50 AM 30.0 °F 19.1 °F 27.0 °F 88% 29.64 in 2.5 mi West 15.0 mph - 0.00 in Snow Light Snow
4:54 AM 30.0 °F 19.1 °F 27.0 °F 88% 29.68 in 3.0 mi West 15.0 mph - 0.00 in Snow Light Snow
4:57 AM 28.9 °F 17.3 °F 27.0 °F 92% 29.68 in 1.8 mi West 16.1 mph - 0.00 in Snow Light Snow
5:04 AM 28.9 °F 18.6 °F 27.0 °F 92% 29.68 in 1.0 mi West 12.7 mph - 0.00 in Snow Light Snow
5:09 AM 28.9 °F 19.8 °F 27.0 °F 92% 29.68 in 2.5 mi WSW 10.4 mph - 0.00 in Snow Light Snow
5:16 AM 28.9 °F 19.2 °F 27.0 °F 92% 29.68 in 9.0 mi WSW 11.5 mph - 0.00 in   Overcast
5:42 AM 28.0 °F 20.0 °F 26.1 °F 92% 29.68 in 9.0 mi SW 8.1 mph - 0.00 in   Scattered Clouds
5:53 AM 28.0 °F 18.6 °F 26.1 °F 92% 29.65 in 10.0 mi SW 10.4 mph - 0.00 in   Partly Cloudy
6:53 AM 28.0 °F 18.1 °F 26.1 °F 92% 29.67 in 10.0 mi SW 11.5 mph - N/A   Clear
7:43 AM 28.0 °F 17.5 °F 26.1 °F 92% 29.70 in 2.5 mi SW 12.7 mph - 0.00 in Snow Light Snow
7:51 AM 28.4 °F 19.7 °F 26.6 °F 93% 29.70 in 9.0 mi SW 9.2 mph - 0.00 in   Mostly Cloudy
7:52 AM 28.0 °F 19.3 °F 26.1 °F 92% 29.69 in 9.0 mi SW 9.2 mph - 0.00 in   Overcast
8:04 AM 28.0 °F 17.5 °F 27.0 °F 96% 29.71 in 1.5 mi SW 12.7 mph - 0.00 in Snow Light Snow
8:08 AM 28.0 °F 17.0 °F 27.0 °F 96% 29.71 in 0.5 mi SW 13.8 mph - 0.00 in Fog , Snow Snow
8:15 AM 28.0 °F 17.0 °F 27.0 °F 96% 29.71 in 0.2 mi SW 13.8 mph - 0.00 in Fog , Snow Heavy Snow
8:32 AM 28.9 °F 20.4 °F 27.0 °F 92% 29.71 in 1.5 mi SW 9.2 mph - 0.00 in Snow Light Snow
8:39 AM 28.9 °F 19.8 °F 28.0 °F 96% 29.71 in 1.0 mi SW 10.4 mph - 0.00 in   Mist
8:46 AM 28.9 °F 18.6 °F 28.0 °F 96% 29.71 in 2.5 mi SW 12.7 mph - 0.00 in   Overcast
8:53 AM 28.9 °F 17.3 °F 28.0 °F 96% 29.72 in 6.0 mi SW 16.1 mph 21.9 mph 0.00 in   Overcast
9:34 AM 30.0 °F 20.0 °F 28.0 °F 92% 29.71 in 1.8 mi SW 12.7 mph - 0.00 in Snow Light Snow
9:38 AM 28.9 °F 17.3 °F 28.0 °F 96% 29.71 in 0.8 mi SW 16.1 mph 23.0 mph 0.00 in Snow Light Snow
9:53 AM 30.0 °F 18.3 °F 28.0 °F 92% 29.73 in 3.0 mi SW 17.3 mph - 0.00 in Snow Light Snow
10:04 AM 30.0 °F 17.9 °F 28.0 °F 92% 29.73 in 1.8 mi SW 18.4 mph - 0.00 in Snow Light Snow
10:10 AM 30.0 °F 17.2 °F 28.0 °F 92% 29.73 in 0.8 mi WSW 20.7 mph - 0.00 in Snow Light Snow
10:22 AM 30.0 °F 18.3 °F 28.0 °F 92% 29.73 in 1.0 mi SW 17.3 mph 23.0 mph 0.00 in Snow Light Snow
10:25 AM 30.0 °F 17.9 °F 28.9 °F 96% 29.73 in 2.5 mi SW 18.4 mph - 0.00 in Snow Light Snow
10:32 AM 30.0 °F 17.2 °F 28.9 °F 96% 29.73 in 5.0 mi SW 20.7 mph - 0.00 in Snow Light Snow
10:38 AM 30.9 °F 18.4 °F 28.9 °F 92% 29.73 in 1.5 mi SW 20.7 mph 26.5 mph 0.00 in Snow Light Snow
10:50 AM 30.2 °F 16.2 °F 28.4 °F 93% 29.74 in 0.8 mi WSW 25.3 mph 34.5 mph 0.00 in Snow Light Snow
10:53 AM 30.9 °F 16.9 °F 28.9 °F 92% 29.73 in 1.0 mi WSW 26.5 mph 34.5 mph 0.00 in Snow Light Snow
10:58 AM 32.0 °F 19.5 °F 28.0 °F 85% 29.74 in 2.0 mi WSW 21.9 mph 34.5 mph 0.00 in Snow Light Snow
11:01 AM 32.0 °F 19.5 °F 28.0 °F 85% 29.74 in 3.0 mi WSW 21.9 mph 33.4 mph 0.00 in Snow Light Snow
11:19 AM 32.0 °F 18.4 °F 28.0 °F 85% 29.75 in 10.0 mi WSW 26.5 mph 34.5 mph 0.00 in   Overcast
11:26 AM 32.0 °F 19.2 °F 28.0 °F 85% 29.75 in 2.5 mi West 23.0 mph 34.5 mph 0.00 in Snow Light Snow
11:31 AM 32.0 °F 19.5 °F 28.9 °F 88% 29.76 in 0.8 mi WSW 21.9 mph - 0.00 in Snow Light Snow
11:39 AM 32.0 °F 20.1 °F 28.9 °F 88% 29.76 in 1.0 mi WSW 19.6 mph - 0.00 in Snow Light Snow
11:47 AM 30.2 °F 18.1 °F 28.4 °F 93% 29.76 in 0.8 mi WSW 18.4 mph 26.5 mph 0.00 in Snow Light Snow
11:53 AM 30.9 °F 17.2 °F 28.0 °F 89% 29.77 in 1.2 mi West 25.3 mph - 0.00 in Snow Light Snow
11:56 AM 32.0 °F 19.2 °F 27.0 °F 82% 29.77 in 2.0 mi West 23.0 mph 26.5 mph 0.00 in Snow Light Snow
12:19 PM 30.9 °F 17.8 °F 27.0 °F 85% 29.77 in 9.0 mi West 23.0 mph - 0.00 in   Overcast
12:53 PM 30.0 °F 17.5 °F 27.0 °F 88% 29.78 in 3.0 mi SW 19.6 mph - 0.00 in Snow Light Snow
1:16 PM 32.0 °F 20.5 °F 26.1 °F 79% 29.78 in 10.0 mi West 18.4 mph 34.5 mph 0.00 in   Overcast
1:53 PM 32.0 °F 22.5 °F 25.0 °F 75% 29.78 in 10.0 mi West 12.7 mph - 0.00 in   Overcast
2:02 PM 32.0 °F 20.5 °F 24.1 °F 73% 29.78 in 10.0 mi West 18.4 mph - N/A   Overcast
2:13 PM 30.9 °F 18.7 °F 25.0 °F 79% 29.79 in 5.0 mi WNW 19.6 mph 25.3 mph 0.00 in Snow Light Snow
2:15 PM 30.0 °F 15.7 °F 26.1 °F 85% 29.79 in 1.2 mi West 26.5 mph 35.7 mph 0.00 in Snow Light Snow
2:21 PM 27.0 °F 11.6 °F 27.0 °F 100% 29.80 in 0.2 mi West 26.5 mph 39.1 mph 0.00 in Fog , Snow Heavy Snow
2:30 PM 27.0 °F 13.5 °F 25.0 °F 92% 29.80 in 0.2 mi West 19.6 mph 29.9 mph 0.00 in Fog , Snow Heavy Snow
2:34 PM 27.0 °F 12.5 °F 26.1 °F 96% 29.80 in 0.2 mi West 23.0 mph 29.9 mph 0.00 in Fog , Snow Snow
2:53 PM 28.0 °F 15.7 °F 26.1 °F 92% 29.82 in 0.5 mi West 17.3 mph 29.9 mph 0.00 in Fog , Snow Snow
2:58 PM 28.9 °F 17.7 °F 27.0 °F 92% 29.79 in 1.0 mi West 15.0 mph - 0.00 in Snow Light Snow
3:02 PM 30.0 °F 19.1 °F 27.0 °F 88% 29.80 in 3.0 mi West 15.0 mph - 0.00 in Snow Light Snow
3:07 PM 28.9 °F 17.7 °F 27.0 °F 92% 29.80 in 7.0 mi West 15.0 mph - 0.00 in Snow Light Snow
3:24 PM 30.0 °F 21.7 °F 26.1 °F 85% 29.81 in 10.0 mi WNW 9.2 mph 17.3 mph 0.00 in   Overcast
3:42 PM 30.0 °F 21.1 °F 25.0 °F 82% 29.81 in 10.0 mi WNW 10.4 mph - 0.00 in   Overcast
3:53 PM 33.1 °F 19.6 °F 25.0 °F 72% 29.81 in 10.0 mi West 27.6 mph 38.0 mph 0.00 in   Overcast
4:00 PM 32.0 °F 18.4 °F 25.0 °F 75% 29.81 in 10.0 mi West 26.5 mph 36.8 mph N/A   Overcast
4:53 PM 32.0 °F 19.2 °F 25.0 °F 75% 29.81 in 10.0 mi SW 23.0 mph - N/A   Scattered Clouds
5:53 PM 33.1 °F 20.6 °F 21.9 °F 64% 29.82 in 10.0 mi WSW 23.0 mph 29.9 mph N/A   Partly Cloudy
6:53 PM 32.0 °F 21.2 °F 21.9 °F 66% 29.86 in 10.0 mi West 16.1 mph - N/A   Clear
7:53 PM 28.0 °F 18.1 °F 21.9 °F 78% 29.90 in 10.0 mi WSW 11.5 mph - N/A   Partly Cloudy
8:51 PM 26.6 °F 15.7 °F 21.2 °F 80% 29.89 in 10.0 mi SW 12.7 mph - N/A   Mostly Cloudy
8:53 PM 27.0 °F 16.7 °F 21.0 °F 78% 29.93 in 10.0 mi SW 11.5 mph - N/A   Mostly Cloudy
9:03 PM 27.0 °F 16.7 °F 21.0 °F 78% 29.90 in 10.0 mi WSW 11.5 mph - N/A   Mostly Cloudy
9:23 PM 28.0 °F 18.1 °F 23.0 °F 81% 29.92 in 2.5 mi West 11.5 mph - 0.00 in Snow Light Snow
9:27 PM 27.0 °F 15.6 °F 23.0 °F 85% 29.92 in 1.5 mi West 13.8 mph - 0.00 in Snow Light Snow
9:33 PM 27.0 °F 16.1 °F 24.1 °F 89% 29.93 in 0.5 mi WSW 12.7 mph - 0.00 in Fog , Snow Snow
9:53 PM 25.0 °F 14.8 °F 24.1 °F 96% 29.96 in 1.2 mi SW 10.4 mph - 0.00 in Snow Light Snow
9:55 PM 25.0 °F 14.8 °F 24.1 °F 96% 29.93 in 2.0 mi SW 10.4 mph - 0.00 in Snow Light Snow
10:02 PM 26.1 °F 20.5 °F 24.1 °F 92% 29.93 in 4.0 mi SW 4.6 mph - 0.00 in Snow Light Snow
10:15 PM 26.1 °F 19.4 °F 24.1 °F 92% 29.93 in 1.8 mi SSW 5.8 mph - 0.00 in   Overcast
10:22 PM 26.1 °F 20.5 °F 24.1 °F 92% 29.93 in 1.0 mi SSW 4.6 mph - 0.00 in   Mist
10:33 PM 25.0 °F 18.1 °F 24.1 °F 96% 29.94 in 0.5 mi South 5.8 mph - 0.00 in Fog Light Freezing Fog
10:47 PM 24.8 °F 17.9 °F 24.8 °F 100% 29.94 in 1.8 mi South 5.8 mph - 0.00 in   Overcast
10:49 PM 24.8 °F 16.9 °F 23.0 °F 93% 29.94 in 3.0 mi South 6.9 mph - 0.00 in   Overcast
10:53 PM 25.0 °F 18.1 °F 23.0 °F 92% 29.98 in 8.0 mi South 5.8 mph - 0.00 in   Overcast
11:13 PM 25.0 °F 15.5 °F 23.0 °F 92% 29.94 in 1.8 mi South 9.2 mph - N/A   Overcast
11:18 PM 25.0 °F 14.8 °F 23.0 °F 92% 29.94 in 0.8 mi SSW 10.4 mph - N/A   Overcast
11:53 PM 24.1 °F 13.7 °F 21.9 °F 91% 29.99 in 0.8 mi SW 10.4 mph - N/A   Mist
11:56 PM 24.1 °F 13.7 °F 21.9 °F 91% 29.95 in 1.8 mi SW 10.4 mph - N/A   Mostly Cloudy
11:58 PM 24.1 °F 13.7 °F 21.9 °F 91% 29.95 in 4.0 mi SW 10.4 mph - N/A   Mostly Cloudy